Meath Environmental Platform

Observations for Trim Patrick St

Time AQI Temp °C Hum % Pres Pa CO μg/m³ H₂S μg/m³ NO μg/m³ NO₂ μg/m³ O₃ μg/m³ SO₂ μg/m³ PM1 μg/m³ PM2.5 μg/m³ PM10 μg/m³
Thursday 30 July 2026
14:47 2 27.2 30 69,067 0 0 2.31 10.62 79.99 9.27 2 7.7 8.47
14:46 2 27.2 30 69,055 0 0 2.32 6.49 74.21 9.64 3.71 10.11 11.12
14:45 2 27.1 31 69,041 0 0 2.27 12.63 103.09 8.31 5.43 11.66 12.82
14:44 2 27 32 69,049 0 0 2.09 8.36 88.84 9.93 2.86 9.12 10.03
14:43 2 26.9 31 69,029 0 0 2.32 5.57 77.9 10.21 2 8.4 9.24
14:42 2 26.8 31 69,029 0 0 2.4 13.29 84.88 8.63 2 7.61 8.37
14:41 2 26.7 31 69,002 0 0 2.4 13.17 107.73 8.84 2 7.59 8.35
14:40 2 26.6 31 69,001 0 0 2.46 11.82 117.02 10.07 2 9.22 10.14
14:39 2 26.5 32 68,997 0 0 2.32 7.43 83.4 9.57 2 8.36 9.19
14:38 2 26.5 32 68,997 0 0 2.41 11.75 111.51 10.36 2.86 9.19 10.1
14:37 2 26.5 31 68,999 0 0 2.49 8.83 84.75 9.56 2 7.62 8.38
14:36 2 26.5 29 68,999 0 0 2.64 9.03 104.68 9.6 2.86 8.52 9.37
14:35 2 26.6 30 68,969 0 0 2.6 6.54 73.81 8.48 2.86 8.51 9.36
14:34 2 26.7 29 68,997 0 0 2.63 4.79 76.89 10.45 2 8.56 9.41
14:33 2 26.8 30 69,029 0 0 2.52 5.56 75.92 9.36 2 8.49 9.34
14:32 2 26.8 29 69,008 0 0 2.56 13.36 101.44 8.51 2 7.72 8.49
14:31 2 26.8 29 69,010 0 0 2.55 5.01 75.42 9.79 2 7.71 8.48
14:30 2 26.8 30 69,021 0 0 2.49 11.62 93.28 8.16 2.86 8.47 9.32
14:29 2 26.8 28 69,025 0 0 2.62 9.64 77.59 8.75 2 7.77 8.55
14:28 2 26.7 30 69,031 0 0 2.55 4.39 76.17 8.87 2 7.7 8.47